User: anonymous   Login
Location: Caltech
(34.1382°N, 118.1253°W)
Time: 23:37:14
(UTC-07:00)
Language:

Cosmos 2084 - Orbit

View from above orbital plane
View from above orbital plane
View from above satellite
View from above satellite

Ground track
Ground track

The orbit data is extracted from the following two-line orbital elements,

1 20663U 90055A   18169.30321505 +.00000000 +00000-0 +18210-4 0  9996
2 20663 062.7934 085.9284 0122632 126.2708 234.9790 14.91842227514417
Epoch (UTC): 18 June 2018 07:16:37
Eccentricity: 0.0122632
inclination: 62.7934°
perigee height: 507 km
apogee height: 677 km
right ascension of ascending node: 85.9284°
argument of perigee: 126.2708°
revolutions per day: 14.91842227
mean anomaly at epoch: 234.9790°
orbit number at epoch: 51441

The dashed part of the orbit path shows where the satellite is in the earth's shadow,  

DLR